Simultaneous Nadir Overpasses (SNOs) Predictions

Prediction of SNOs between AQUA and METOP-C Satellite Orbit:

Table of predicted SNOs for the next 14.0 days since TLE Epoch: 11/19/2022
Index Date (AQUA) Time (AQUA) Lat,Lon (AQUA) SZA (AQUA ) Date (METOP-C) Time (METOP-C) Lat,Lon (METOP-C) SZA (METOP-C ) Distance(km) Time Diff (sec)
1 11/19/2022 09:15:27 74.09, 36.21 93.50 11/19/2022 09:14:31 74.08, 36.27 93.49 2.20 56
2 11/19/2022 10:04:53 -74.16,-156.29 86.43 11/19/2022 10:05:12 -74.15,-156.25 86.44 1.96 19
3 11/19/2022 10:54:33 74.83, 9.70 94.27 11/19/2022 10:55:38 74.79, 12.80 94.22 90.35 65
4 11/22/2022 03:59:14 -74.08, -64.68 85.90 11/22/2022 03:58:15 -74.06, -64.71 85.91 1.79 59
5 11/22/2022 04:48:42 74.14, 102.81 94.18 11/22/2022 04:48:53 74.13, 102.80 94.17 1.18 11
6 11/22/2022 05:38:17 -74.66, -90.79 85.29 11/22/2022 05:39:24 -74.68, -88.46 85.29 68.71 67
7 11/24/2022 22:43:03 74.09,-165.65 94.70 11/24/2022 22:41:55 74.09,-165.54 94.70 3.22 68
8 11/24/2022 23:32:29 -74.15, 1.87 85.25 11/24/2022 23:32:36 -74.15, 1.92 85.25 1.35 7
9 11/25/2022 00:22:00 74.37, 168.98 95.00 11/25/2022 00:23:11 74.37, 169.81 94.99 25.06 71
10 11/27/2022 17:26:49 -74.07, 93.47 84.80 11/27/2022 17:25:39 -74.05, 93.43 84.82 2.92 70
11 11/27/2022 18:16:17 74.15, -99.06 95.29 11/27/2022 18:16:17 74.13, -99.04 95.27 2.27 0
12 11/27/2022 19:05:44 -74.25, 68.35 84.61 11/27/2022 19:06:57 -74.23, 68.53 84.64 6.03 73
13 11/30/2022 12:10:34 74.01, -7.30 95.61 11/30/2022 12:09:21 73.93, -7.77 95.55 16.57 73
14 11/30/2022 13:00:02 -74.16, 160.00 84.24 11/30/2022 12:59:59 -74.12, 160.02 84.27 3.52 3



Historial Predications of SNOs between AQUA and METOP-C
